Location: Kernascl�den
(48.0062°N, 3.3198°W)
Time: 22:51:07
(UTC+00:00)

Cosmos 1538 Rocket - Pass Details

Date: 21 January 2021
Orbit: 752 x 791 km, 74.0° (Epoch: 04 March)

Event Time Altitude Azimuth Distance (km) Brightness Sun altitude
Rises 18:12:49 0° 336° (NNW) 3,219 7.3 -12.6°
Reaches altitude 10° 18:15:12 10° 336° (NNW) 2,288 6.6 -13.0°
Maximum altitude 18:20:23 82° 249° (WSW) 766 4.1 -13.8°
Drops below altitude 10° 18:25:32 10° 163° (SSE) 2,274 6.4 -14.7°
Sets 18:27:53 0° 162° (SSE) 3,197 7.2 -15.0°
